Regional Weather Roundup
Issued by NWS

Home | Current Version | Previous Version | Text Only | Print | Product List | Glossary Off
Versions: 1 2 3 4 5 6 7 8 9 10 11 12 13 14 15 16 17 18 19 20 21 22 23 24 25 26 27 28 29 30 31 32 33 34 35 36 37 38 39 40 41 42 43 44 45 46 47 48 49 50

000
ASUS43 KLSX 312007
RWRMO

WEATHER SUMMARY FOR MISSOURI
NATIONAL WEATHER SERVICE SPRINGFIELD MO
300 PM CDT FRI OCT 31 2014

NOTE: "FAIR" INDICATES FEW OR NO CLOUDS BELOW 12,000 FEET WITH NO
       SIGNIFICANT WEATHER AND/OR OBSTRUCTIONS TO VISIBILITY.
       CURRENT SKY AND/OR WEATHER CONDITIONS ARE NOT AVAILABLE FOR
       CHILLICOTHE AND FARMINGTON.

MOZ001>031-035>038-043-044-053-054-312100-
...NORTHERN AND WESTERN MISSOURI...

CITY           SKY/WX    TMP DP  RH WIND       PRES   REMARKS
KANSAS CTY INT SUNNY     45  20  36 N13       30.46F
KANSAS C DTWN  SUNNY     47  17  30 N9G20     30.46F
LEE`S SUMMIT   SUNNY     44  18  35 N13G22    30.45F
ST JOSEPH      SUNNY     46  18  32 N13G18    30.48F
CHILLICOTHE      N/A     47  18  31 N9G17     30.45F
KIRKSVILLE     SUNNY     44  20  38 N18G24    30.40F

$$
MOZ066>068-077>081-088>096-101>105-312100-
...SOUTHWEST MISSOURI...

CITY           SKY/WX    TMP DP  RH WIND       PRES   REMARKS
SPRINGFIELD    SUNNY     48  21  34 N15       30.34F
JOPLIN         SUNNY     47  26  44 N18G24    30.40S

$$
MOZ032>034-039>042-045>050-055>058-069>072-312100-
...CENTRAL MISSOURI...

CITY           SKY/WX    TMP DP  RH WIND       PRES   REMARKS
COLUMBIA       SUNNY     46  18  32 N17G25    30.37S
JEFFERSON CITY SUNNY     46  18  32 N16G23    30.38S
ROLLA          SUNNY     44  22  41 N17G28    30.31S
SEDALIA        LGT RAIN  47  18  31 N17       30.41F
WHITEMAN AFB   SUNNY     45  19  34 N14       30.41S
OSAGE BEACH    SUNNY     45  19  36 N9G24     30.37R

$$
MOZ051-052-059>065-312100-
...EAST CENTRAL MISSOURI...

CITY           SKY/WX    TMP DP  RH WIND       PRES   REMARKS
ST LOUIS INTL  MOSUNNY   47  24  40 NW22      30.29S
SPIRIT OF STL  MOSUNNY   47  23  38 N17G26    30.30S
ST CHARLES     MOSUNNY   47  24  40 NW21G30   30.30S

$$
MOZ072>076-082>087-097>100-106>115-312100-
...SOUTH CENTRAL AND SOUTHEAST MISSOURI...

CITY           SKY/WX    TMP DP  RH WIND       PRES   REMARKS
CAPE GIRARDEAU SUNNY     49  25  39 N24G31    30.22R
FARMINGTON     SUNNY    N/A N/A N/A NW12G26   30.26S
POPLAR BLUFF   SUNNY     53  20  27 N18G36    30.21R
WEST PLAINS    SUNNY     49  18  29 N13G28    30.27S

$$



USA.gov is the U.S. government's official web portal to all federal, state and local government web resources and services.